Wind_Speed
41 43 41 39 41 42 36 28 25 29 21 18 17 17 20 11 21 28 14 18 16 16 15 18 17 16 16 16 15 12 11 11 10 9 9 8 7 6 6 6 4 3 3 3 3 3 4 6 7
35 40 47 46 49 46 39 30 29 27 31 22 33 31 26 11 32 27 16 16 16 16 17 19 21 22 20 18 17 15 13 13 12 11 10 9 7 7 7 6 4 4 5 4 4 5 6 8 9
32 36 42 50 54 52 44 35 31 26 19 28 41 38 36 35 36 26 20 25 19 17 19 22 24 22 23 21 21 20 19 16 14 13 12 9 7 7 7 5 4 4 4 6 6 6 6 9 10
37 38 40 45 48 48 49 40 38 18 20 33 41 40 41 42 42 26 22 23 22 17 18 23 22 26 23 21 20 21 19 18 16 14 12 11 9 9 9 7 5 5 5 6 7 9 10 11 12
42 45 46 44 40 40 46 47 41 36 25 28 31 38 38 43 39 34 29 27 24 19 20 22 19 21 19 20 18 18 18 17 16 13 13 13 9 9 9 7 7 6 6 8 10 11 12 13 14
45 46 50 48 44 38 39 44 50 48 35 27 39 23 30 47 39 38 34 34 27 23 24 24 24 25 23 18 19 19 18 17 15 14 12 12 10 9 8 7 7 8 9 11 12 12 14 14 16
50 50 50 49 47 44 41 40 44 52 51 30 31 37 26 38 46 39 37 39 32 30 28 27 25 24 22 20 20 18 16 14 14 13 12 11 10 9 8 9 8 11 12 13 13 15 16 18 20
54 55 56 53 50 48 45 37 31 44 59 46 36 38 25 43 54 40 36 40 38 33 30 30 27 25 22 19 17 14 12 10 9 9 9 10 9 10 10 11 12 14 15 15 16 17 19 22 23
61 61 61 57 55 52 48 48 40 26 35 49 46 50 32 52 53 45 37 35 43 31 28 31 26 21 20 20 17 15 13 12 11 10 10 9 11 12 14 14 14 16 17 18 19 21 22 24 27
66 68 64 61 60 59 56 52 50 37 28 37 45 56 41 55 56 53 35 35 32 37 29 28 30 26 27 29 19 16 17 15 9 8 9 10 13 14 15 15 15 17 19 22 22 24 26 29 30
64 69 67 67 66 65 63 62 52 48 39 36 51 59 61 58 57 52 42 34 41 42 37 29 33 29 33 29 27 24 20 18 14 13 13 14 15 16 17 16 18 19 22 24 25 28 29 33 36
62 66 69 71 70 72 73 70 70 60 56 42 41 49 56 59 47 55 46 38 42 40 39 34 36 34 33 29 25 23 23 22 20 19 15 16 18 18 18 20 20 21 25 27 30 32 36 39 42
54 62 66 68 71 75 73 76 75 72 67 58 46 41 51 61 59 59 49 44 46 42 43 36 37 38 32 32 26 24 25 26 24 21 21 20 21 22 22 23 23 27 28 32 34 38 39 42 43
43 50 59 66 70 73 75 76 77 74 71 72 65 58 60 58 61 52 58 49 45 45 42 37 38 40 34 34 28 24 24 24 25 26 26 25 23 23 24 27 27 30 33 34 36 40 40 43 44
32 36 38 52 64 67 71 77 80 77 73 75 74 70 67 61 62 54 61 56 52 51 49 51 34 33 36 36 31 26 25 24 24 25 26 26 25 26 28 29 31 33 35 38 41 43 45 46 46
33 37 39 37 43 54 55 75 78 77 80 76 73 70 68 64 62 62 65 63 58 55 55 40 39 38 39 39 34 30 29 28 27 27 28 26 27 29 28 30 34 37 39 41 43 46 48 47 47
32 30 31 35 37 40 43 65 76 74 79 82 78 73 69 67 65 63 67 68 61 57 60 48 47 43 41 39 36 35 33 30 29 27 29 30 29 30 30 33 38 42 42 45 48 50 50 46 45
17 22 28 29 23 32 37 35 51 50 71 80 81 77 71 68 65 62 58 63 67 64 61 52 48 46 44 42 40 40 35 31 33 30 30 32 33 33 36 40 43 44 46 49 49 49 49 48 50
25 27 30 32 24 34 38 42 50 30 36 66 79 78 76 70 66 62 59 56 64 67 62 54 51 50 48 46 42 40 35 34 35 33 32 32 33 35 39 42 41 46 49 51 49 53 57 55 52
29 32 27 26 27 28 33 35 38 38 39 40 69 77 78 75 70 62 62 60 61 67 65 55 51 54 51 48 44 41 37 38 37 35 33 36 37 37 40 42 45 51 52 49 50 49 46 46 43
33 35 30 29 27 30 33 39 42 48 46 53 50 72 75 77 71 63 63 64 56 62 73 59 56 49 47 48 46 43 43 41 38 37 36 36 39 35 37 45 47 49 49 42 45 45 41 37 24
33 31 33 32 31 31 26 37 32 28 41 52 54 62 76 78 75 64 63 63 57 55 66 64 60 60 52 52 52 49 43 41 42 38 40 43 35 36 41 47 45 34 36 40 40 35 33 26 17
26 29 30 30 32 32 31 34 34 31 40 45 54 73 72 73 74 66 64 62 58 55 58 61 60 67 63 56 50 48 43 44 43 39 39 37 39 43 46 42 38 37 36 36 27 31 27 20 18
26 26 29 29 28 32 15 28 25 30 33 35 53 68 78 76 76 69 64 62 59 58 49 55 54 60 53 58 59 61 50 49 43 41 33 34 38 43 37 39 37 36 32 28 26 24 13 16 21
21 23 25 28 27 28 20 29 28 27 33 38 36 59 72 79 76 70 65 64 62 56 45 50 57 55 56 59 59 52 42 37 47 34 30 36 41 37 39 35 33 28 20 14 14 16 18 19 23
23 21 25 27 22 26 28 32 29 13 21 43 38 53 64 79 76 72 65 62 63 54 46 46 49 55 58 58 55 49 44 44 38 24 29 38 34 36 31 31 24 17 12 16 20 21 24 27 27
25 23 21 28 26 30 20 20 26 16 19 41 40 45 57 76 71 66 60 61 61 54 49 42 42 49 51 52 52 42 40 37 32 32 37 39 35 29 31 21 18 16 16 18 21 24 26 27 27
27 19 20 28 28 26 17 21 24 9 17 40 35 32 27 49 66 64 58 61 61 49 50 46 42 46 51 51 48 47 40 34 37 38 34 38 28 30 22 16 18 16 18 19 22 25 26 27 28
20 19 21 22 23 23 23 18 22 16 26 30 36 42 35 39 60 63 57 62 57 51 54 51 44 48 52 54 51 49 45 44 36 24 38 31 28 23 16 15 18 17 19 21 21 23 25 27 29
15 19 22 26 23 25 23 26 17 17 34 25 27 43 35 33 60 60 58 60 54 58 56 58 48 50 56 55 53 53 43 46 17 24 28 28 27 20 17 18 19 18 20 21 22 26 28 29 31
Wind_Direction
241 239 238 239 240 242 242 235 232 229 205 264 249 228 226 273 256 233 230 232 230 230 236 239 227 227 227 233 234 231 220 215 212 210 216 216 214 223 223 219 212 223 262 283 290 315 317 325 333
246 239 239 238 239 241 239 236 234 227 226 238 242 230 227 254 252 252 251 247 231 235 239 247 237 234 232 233 243 242 230 225 221 219 225 229 224 225 227 228 248 266 284 297 324 341 343 338 339
250 246 239 238 240 239 241 233 234 237 226 252 257 244 237 237 246 248 242 256 249 240 235 249 237 231 228 227 227 232 230 223 223 229 231 232 231 236 243 257 269 283 300 314 318 325 333 335 338
252 249 246 243 243 244 241 233 229 201 270 251 259 253 249 241 250 252 243 246 245 240 243 232 240 244 237 230 226 229 221 218 218 223 228 229 223 243 256 264 272 287 291 301 318 336 336 330 330
254 250 248 247 246 244 243 236 234 216 206 231 251 256 247 247 249 246 245 239 234 233 226 219 222 229 225 226 227 221 222 223 217 216 215 226 237 241 242 250 262 275 300 314 322 324 324 326 326
254 253 250 247 247 245 243 241 229 224 213 236 230 237 240 251 239 244 236 236 222 220 220 229 229 240 243 230 225 221 219 223 227 229 230 225 227 236 248 253 269 293 304 310 316 319 319 322 325
254 253 254 252 247 241 243 244 236 233 218 221 243 233 248 261 248 235 240 222 211 211 227 227 223 243 241 220 220 224 221 223 223 231 230 233 230 241 250 263 286 295 300 306 310 314 318 320 321
252 250 250 249 249 242 238 234 247 237 235 222 232 227 208 249 250 237 232 237 209 212 219 217 219 223 220 211 212 211 210 208 212 213 227 231 232 241 256 274 289 292 298 303 304 308 314 314 316
248 248 250 248 247 247 239 236 224 229 251 227 234 226 219 232 242 244 235 232 230 201 215 218 214 208 215 204 206 210 211 227 219 231 244 260 258 259 269 280 288 292 296 296 302 308 308 309 311
247 245 246 244 243 242 240 235 227 209 230 233 231 226 209 235 237 240 237 241 222 223 212 213 222 232 231 220 223 225 227 226 225 245 257 266 276 276 275 280 285 288 290 294 301 304 309 309 311
248 245 243 242 240 238 239 234 222 213 210 239 238 231 224 234 239 240 236 232 223 224 227 221 227 222 221 250 211 225 233 239 252 255 261 278 286 284 283 284 281 284 288 294 302 304 307 311 314
247 246 243 242 240 239 235 233 231 217 210 221 233 234 223 224 238 232 235 229 226 229 230 217 224 223 228 230 235 232 234 243 254 260 267 282 282 276 272 274 278 285 289 297 304 309 315 314 319
250 247 244 242 241 241 238 233 233 226 222 211 218 224 223 224 227 233 228 230 225 227 228 214 212 217 218 225 225 237 244 245 251 255 269 281 279 275 276 279 283 290 297 305 310 314 316 318 315
258 250 246 243 241 241 239 237 236 233 232 226 220 217 225 217 221 224 223 223 223 221 215 205 212 219 215 222 225 238 250 259 262 265 273 280 278 275 277 285 293 298 302 306 308 311 314 312 314
263 264 256 246 245 246 243 238 235 230 233 234 230 229 224 222 223 215 221 219 220 222 222 193 202 224 220 223 231 234 247 257 265 271 278 275 274 273 278 290 296 300 300 304 307 311 312 314 316
267 264 264 263 260 251 252 241 235 235 233 230 232 232 231 223 222 221 218 215 219 220 219 228 205 221 229 226 232 236 248 255 263 269 279 276 274 273 281 294 296 295 300 304 307 308 308 310 313
263 262 265 273 269 266 262 251 236 235 235 232 230 229 228 227 223 226 226 222 216 220 221 207 215 224 230 231 234 239 249 255 264 271 279 276 279 280 287 295 297 297 300 301 303 304 306 312 314
260 268 270 260 238 227 230 240 248 248 238 236 230 227 228 226 224 227 230 224 220 218 224 214 216 225 229 233 236 240 248 253 262 271 274 277 283 283 286 290 294 295 301 303 305 305 308 314 318
246 254 252 260 266 241 233 233 236 233 252 237 232 228 227 225 223 222 225 224 223 221 222 220 219 223 227 232 237 242 248 253 261 268 270 277 284 287 287 290 294 298 304 304 303 304 307 314 316
242 252 262 266 252 262 270 266 254 236 216 225 232 225 226 225 221 219 221 224 222 221 219 218 221 218 224 230 236 241 246 252 259 266 269 274 285 290 289 292 297 301 306 306 300 312 321 323 321
260 259 263 265 261 252 254 254 256 252 225 220 225 224 221 225 222 217 219 224 221 221 228 213 218 229 218 229 235 240 243 250 257 263 266 271 279 290 304 308 307 303 300 304 309 317 323 322 342
259 267 275 272 266 265 258 263 259 255 242 220 217 216 218 220 219 217 218 222 222 221 226 225 215 222 221 225 230 235 240 246 250 258 269 273 286 291 304 311 313 309 302 302 311 322 322 323 330
268 261 266 271 267 272 274 261 265 257 237 219 210 215 214 218 218 216 215 219 222 220 222 224 220 216 214 219 229 230 231 242 247 255 262 273 286 295 306 315 312 311 310 311 314 312 309 310 321
270 267 268 273 276 268 299 267 274 258 230 230 210 224 212 214 215 212 212 215 217 220 217 223 219 229 226 222 234 232 225 233 243 251 262 278 283 297 308 310 313 311 310 315 308 301 301 309 310
275 278 278 274 269 285 285 260 275 272 232 205 212 216 215 212 210 210 212 213 216 217 214 216 220 223 220 229 232 241 244 200 230 246 279 282 290 299 308 309 305 307 307 301 309 313 309 305 300
258 262 262 275 274 276 288 294 309 271 238 206 200 208 216 213 209 207 208 211 215 213 208 213 219 221 223 226 234 239 243 263 281 290 276 283 302 305 308 301 302 305 299 311 308 309 312 313 314
273 264 268 271 273 281 294 301 295 261 241 198 185 202 214 212 207 205 205 209 211 210 206 211 217 221 222 225 232 240 245 254 270 272 274 291 304 303 298 294 308 297 309 306 307 315 318 315 311
271 252 252 267 271 276 292 279 280 209 253 182 175 177 198 212 201 203 199 208 209 203 207 210 211 216 220 224 231 237 242 250 250 256 274 282 295 292 283 290 299 300 306 309 314 314 312 313 311
257 248 254 260 269 287 276 284 272 248 222 197 174 174 184 208 194 200 197 207 206 202 209 212 208 211 215 220 226 230 232 234 242 267 269 283 284 281 288 290 293 304 311 313 311 309 309 308 310
255 239 249 257 263 269 272 281 274 238 209 173 165 153 166 190 192 198 199 203 201 207 209 213 206 207 211 217 223 229 234 241 272 269 269 277 275 278 284 298 302 307 307 311 311 312 313 312 310
Height
5854 5857 5859 5862 5864 5862 5867 5876 5881 5884 5886 5890 5887 5888 5886 5884 5881 5879 5883 5888 5893 5897 5899 5901 5901 5903 5905 5906 5906 5907 5908 5908 5909 5910 5911 5911 5911 5912 5912 5913 5913 5912 5912 5912 5912 5912 5912 5912 5912
5846 5849 5852 5854 5852 5855 5864 5873 5876 5881 5884 5885 5883 5882 5884 5886 5875 5879 5885 5889 5892 5894 5897 5899 5900 5902 5903 5905 5906 5906 5906 5907 5908 5908 5909 5910 5911 5911 5912 5912 5912 5912 5912 5912 5912 5912 5912 5912 5912
5839 5841 5843 5843 5843 5847 5858 5868 5872 5877 5880 5882 5877 5880 5882 5878 5872 5883 5889 5886 5890 5892 5894 5896 5898 5900 5901 5902 5903 5904 5904 5904 5906 5907 5908 5909 5910 5911 5911 5911 5912 5912 5912 5912 5911 5911 5911 5911 5911
5832 5833 5833 5833 5838 5846 5852 5863 5866 5873 5880 5876 5872 5874 5873 5875 5875 5884 5885 5886 5887 5890 5892 5894 5897 5898 5899 5899 5901 5902 5902 5902 5903 5905 5906 5908 5908 5909 5910 5910 5911 5911 5911 5911 5910 5911 5911 5910 5909
5823 5823 5823 5826 5833 5841 5845 5853 5862 5864 5868 5870 5866 5868 5868 5869 5875 5878 5882 5883 5886 5888 5889 5892 5893 5895 5895 5896 5898 5899 5899 5900 5901 5903 5904 5906 5907 5908 5908 5908 5908 5909 5910 5909 5909 5909 5909 5909 5908
5813 5814 5814 5819 5827 5833 5837 5843 5849 5857 5859 5863 5862 5865 5864 5859 5869 5871 5877 5878 5883 5885 5886 5888 5890 5892 5893 5893 5895 5896 5896 5898 5900 5903 5904 5905 5905 5906 5907 5906 5907 5907 5908 5908 5907 5907 5907 5906 5906
5803 5804 5806 5811 5817 5824 5830 5834 5840 5846 5850 5855 5855 5860 5862 5856 5858 5867 5872 5872 5877 5881 5882 5885 5886 5888 5889 5890 5892 5894 5895 5897 5898 5901 5902 5903 5903 5905 5905 5906 5905 5905 5905 5905 5905 5905 5904 5904 5903
5791 5792 5794 5800 5807 5814 5821 5823 5831 5834 5839 5846 5846 5852 5861 5845 5846 5860 5865 5866 5869 5874 5877 5881 5882 5884 5886 5888 5891 5893 5893 5895 5897 5899 5901 5902 5902 5903 5904 5904 5903 5903 5903 5903 5902 5902 5902 5902 5900
5775 5777 5781 5790 5795 5802 5811 5814 5819 5828 5829 5834 5836 5844 5850 5842 5844 5852 5859 5860 5864 5867 5874 5875 5879 5882 5884 5886 5889 5891 5892 5894 5896 5898 5899 5900 5901 5901 5901 5901 5900 5900 5901 5901 5900 5900 5899 5898 5896
5758 5760 5770 5778 5782 5785 5794 5801 5808 5815 5821 5821 5824 5832 5837 5832 5837 5844 5852 5855 5858 5862 5868 5872 5875 5877 5880 5883 5887 5889 5891 5892 5894 5895 5897 5898 5899 5899 5899 5899 5899 5899 5899 5899 5897 5896 5895 5893 5891
5742 5746 5756 5760 5764 5769 5775 5781 5787 5796 5804 5813 5812 5818 5828 5824 5832 5838 5848 5852 5853 5858 5864 5868 5870 5874 5877 5880 5882 5885 5888 5889 5891 5893 5895 5896 5896 5897 5897 5897 5896 5897 5896 5895 5894 5893 5891 5888 5886
5724 5730 5737 5742 5748 5748 5754 5762 5768 5776 5787 5800 5802 5805 5816 5820 5825 5834 5841 5846 5847 5852 5859 5863 5866 5871 5874 5876 5879 5882 5885 5887 5889 5890 5892 5893 5893 5894 5894 5894 5894 5894 5893 5892 5890 5889 5886 5885 5882
5709 5716 5719 5725 5727 5730 5738 5747 5753 5759 5772 5777 5786 5794 5803 5811 5816 5822 5834 5838 5841 5845 5851 5858 5862 5866 5870 5873 5877 5880 5882 5885 5886 5889 5889 5890 5891 5891 5891 5890 5891 5889 5890 5887 5887 5885 5884 5882 5878
5698 5700 5704 5708 5710 5713 5719 5730 5737 5752 5761 5763 5769 5776 5788 5797 5803 5811 5823 5830 5835 5837 5843 5850 5856 5859 5865 5870 5873 5875 5878 5881 5883 5885 5886 5886 5887 5887 5887 5887 5887 5886 5886 5886 5884 5882 5879 5875 5872
5687 5687 5690 5693 5697 5699 5706 5708 5720 5741 5746 5749 5756 5766 5775 5787 5795 5800 5811 5821 5827 5829 5837 5792 5845 5856 5861 5866 5868 5870 5874 5877 5879 5880 5882 5882 5883 5883 5884 5884 5883 5883 5882 5880 5878 5875 5872 5870 5868
5679 5678 5680 5688 5687 5688 5689 5692 5712 5724 5727 5735 5744 5755 5765 5775 5784 5789 5798 5808 5817 5823 5827 5822 5843 5852 5856 5861 5863 5866 5869 5872 5875 5878 5878 5879 5879 5880 5881 5880 5879 5878 5877 5876 5873 5870 5866 5865 5861
5670 5671 5673 5675 5677 5677 5679 5680 5698 5702 5705 5718 5731 5741 5752 5763 5773 5779 5786 5800 5810 5816 5819 5834 5842 5848 5851 5854 5859 5861 5864 5868 5872 5875 5875 5875 5876 5876 5877 5877 5875 5873 5872 5870 5868 5866 5862 5858 5853
5665 5668 5667 5665 5668 5667 5665 5669 5679 5682 5689 5697 5714 5729 5739 5749 5762 5771 5780 5791 5799 5805 5813 5828 5837 5841 5843 5848 5853 5856 5860 5865 5868 5870 5871 5872 5872 5872 5872 5872 5871 5869 5868 5865 5862 5858 5854 5851 5847
5657 5659 5659 5660 5661 5659 5658 5657 5663 5671 5675 5682 5695 5714 5725 5737 5752 5762 5770 5781 5789 5797 5807 5821 5829 5833 5836 5843 5848 5853 5857 5860 5863 5866 5866 5867 5867 5867 5868 5867 5866 5863 5862 5859 5855 5850 5847 5843 5838
5652 5649 5650 5652 5654 5653 5651 5649 5653 5658 5661 5670 5680 5698 5712 5724 5737 5751 5759 5767 5779 5789 5798 5814 5819 5821 5830 5837 5843 5847 5851 5855 5858 5860 5861 5861 5862 5862 5861 5860 5861 5857 5856 5852 5850 5845 5840 5835 5829
5643 5642 5643 5644 5644 5643 5642 5639 5643 5648 5651 5654 5664 5684 5698 5710 5726 5741 5749 5756 5771 5780 5788 5804 5813 5811 5821 5832 5838 5841 5844 5848 5853 5853 5854 5855 5855 5858 5856 5853 5852 5851 5849 5847 5844 5840 5836 5829 5823
5634 5638 5636 5635 5634 5631 5635 5627 5631 5633 5638 5646 5651 5668 5684 5698 5715 5730 5741 5749 5761 5772 5781 5796 5802 5810 5819 5825 5827 5832 5839 5843 5845 5847 5851 5852 5853 5851 5849 5848 5844 5843 5841 5839 5838 5834 5830 5825 5819
5628 5628 5628 5626 5625 5624 5623 5622 5620 5625 5626 5630 5640 5654 5674 5689 5704 5720 5732 5742 5752 5763 5774 5785 5797 5798 5806 5816 5818 5825 5830 5836 5839 5843 5845 5846 5845 5843 5842 5842 5840 5838 5836 5832 5830 5829 5824 5819 5816
5623 5621 5620 5619 5618 5612 5616 5614 5609 5611 5613 5623 5633 5646 5663 5675 5692 5710 5722 5733 5744 5752 5769 5778 5788 5794 5802 5810 5812 5816 5821 5825 5833 5836 5840 5839 5839 5839 5837 5836 5836 5833 5829 5826 5825 5822 5818 5814 5811
5616 5616 5613 5611 5609 5606 5610 5602 5599 5602 5605 5608 5622 5636 5651 5665 5681 5701 5714 5724 5734 5749 5763 5770 5779 5787 5796 5802 5808 5815 5820 5802 5819 5829 5835 5834 5834 5834 5833 5832 5831 5828 5826 5824 5821 5819 5816 5812 5810
5612 5610 5608 5605 5604 5602 5597 5592 5595 5592 5595 5601 5612 5627 5641 5655 5673 5690 5706 5718 5728 5744 5756 5766 5775 5780 5786 5795 5802 5811 5816 5815 5818 5825 5826 5828 5828 5829 5829 5829 5827 5826 5823 5820 5818 5815 5811 5808 5805
5605 5603 5605 5599 5597 5595 5596 5592 5588 5588 5589 5594 5599 5617 5629 5645 5668 5684 5700 5710 5722 5740 5752 5762 5769 5775 5783 5790 5797 5804 5807 5810 5817 5819 5822 5821 5823 5827 5827 5825 5824 5822 5819 5816 5814 5810 5807 5805 5801
5595 5599 5597 5596 5592 5591 5590 5587 5581 5580 5583 5586 5598 5612 5626 5638 5661 5677 5693 5703 5719 5738 5747 5754 5763 5771 5778 5784 5791 5794 5802 5807 5809 5814 5815 5819 5823 5824 5823 5822 5820 5817 5816 5812 5809 5807 5805 5801 5797
5588 5589 5590 5590 5588 5586 5584 5583 5580 5579 5580 5578 5587 5600 5624 5634 5654 5673 5688 5698 5716 5731 5737 5749 5758 5765 5771 5778 5781 5791 5796 5799 5805 5806 5812 5816 5819 5820 5819 5817 5816 5813 5810 5808 5806 5803 5800 5796 5790
5582 5584 5584 5583 5584 5583 5581 5580 5580 5577 5576 5585 5588 5599 5618 5637 5656 5669 5681 5695 5713 5722 5730 5743 5749 5756 5762 5771 5781 5785 5793 5798 5795 5805 5809 5813 5815 5814 5815 5813 5811 5808 5807 5803 5800 5798 5793 5788 5785